Location: ??????????
(54.7560°N, 39.1389°E)
Time: 11:20:41
(UTC+00:00)

SL-24 R/B - Pass Details

Date: 19 May 2025
Orbit: 623 x 1072 km, 98.1° (Epoch: 13 June)

Event Time Altitude Azimuth Distance (km) Brightness Sun altitude
Rises 19:19:54 0° 15° (NNE) 2,928 8.3 -11.0°
Reaches altitude 10° 19:22:06 10° 17° (NNE) 2,010 7.4 -11.2°
Maximum altitude 19:26:25 79° 104° (ESE) 650 4.1 -11.4°
Drops below altitude 10° 19:30:51 10° 192° (SSW) 2,063 6.3 -11.7°
Enters shadow 19:30:53 10° 192° (SSW) 2,075 6.3 -11.7°
